This is the latest recevied weather packets stored in our database for station/object EA3DJ-10. If no packets are shown the sender has not sent any weather packets the latest 10 day(s).
| Time | Temp. | Humidity | Pressure | Rain* | Wind** | Luminosity | Snow |
|---|---|---|---|---|---|---|---|
| 1787765912 | 31.67° C | 37% | 1012.3 hPa | - | - | - | - |
| 1787764712 | 30.56° C | 36% | 1012.5 hPa | - | - | - | - |
| 1787763511 | 30° C | 36% | 1012.5 hPa | - | - | - | - |
| 1787762311 | 27.78° C | 38% | 1012.5 hPa | - | - | - | - |
| 1787761111 | 27.22° C | 42% | 1012.7 hPa | - | - | - | - |
| 1787759910 | 27.22° C | 45% | 1012.8 hPa | - | - | - | - |
| 1787758710 | 26.67° C | 44% | 1012.9 hPa | - | - | - | - |
| 1787757510 | 24.44° C | 46% | 1013.2 hPa | - | - | - | - |
| 1787756310 | 25° C | 46% | 1013.2 hPa | - | - | - | - |
| 1787755110 | 26.67° C | 48% | 1013.4 hPa | - | - | - | - |
| 1787753909 | 28.33° C | 45% | 1013.6 hPa | - | - | - | - |
| 1787752709 | 27.78° C | 44% | 1013.8 hPa | - | - | - | - |
| 1787751509 | 28.33° C | 46% | 1013.3 hPa | - | - | - | - |
| 1787750309 | 28.33° C | 45% | 1012.9 hPa | - | - | - | - |
| 1787749109 | 27.78° C | 44% | 1013 hPa | - | - | - | - |
| 1787747909 | 25.56° C | 46% | 1013.6 hPa | - | - | - | - |
| 1787746709 | 26.67° C | 51% | 1013.9 hPa | - | - | - | - |
| 1787745508 | 28.89° C | 50% | 1014.5 hPa | - | - | - | - |
| 1787744308 | 28.89° C | 50% | 1015 hPa | - | - | - | - |
| 1787743108 | 28.89° C | 51% | 1015.6 hPa | - | - | - | - |
| 1787741908 | 28.89° C | 50% | 1015 hPa | - | - | - | - |
| 1787740708 | 28.89° C | 50% | 1015.3 hPa | - | - | - | - |
| 1787739508 | 28.89° C | 50% | 1015.6 hPa | - | - | - | - |
| 1787738307 | 28.89° C | 49% | 1016.1 hPa | - | - | - | - |
| 1787737107 | 28.33° C | 49% | 1014.5 hPa | - | - | - | - |
* Rain since midnight (hover to see other rain measurements)
** Current wind speed in m/s (hover to see current wind gust speed)